Temperature
10 9 8 9 9 10 10 10 10 11 11 10 10 10 10 11 11 10 11 11 10 10 10 10 9 9 9 9 9 10 10 10 10 10 10 10 10 10 10 10 10 10 10 10
9 8 9 10 10 10 10 9 9 10 10 10 9 9 10 10 10 10 10 10 10 10 10 9 9 9 9 9 9 9 9 9 9 9 9 9 9 9 9 9 9 10 10 10
8 9 9 9 9 9 9 8 8 9 9 9 9 8 9 10 10 10 10 10 9 9 9 9 8 8 8 8 9 9 9 9 9 9 9 9 9 9 9 9 9 9 9 9
8 9 9 8 8 8 8 9 8 8 7 7 8 6 9 9 9 9 9 9 9 9 8 8 8 8 8 8 8 8 8 8 8 8 8 8 9 8 8 8 9 9 9 9
7 8 8 7 8 8 7 8 8 8 7 6 7 6 7 9 9 9 9 9 9 8 8 8 7 7 7 7 7 8 8 8 8 8 8 8 8 8 8 8 8 8 8 8
7 8 7 7 8 8 7 7 7 7 6 5 6 6 7 8 9 9 8 9 8 8 7 7 7 7 7 7 7 7 7 7 7 7 7 7 7 7 7 7 7 8 8 8
6 7 7 7 6 6 6 5 5 5 5 5 8 7 7 9 9 9 8 8 8 7 7 6 6 6 6 6 6 7 7 7 7 7 7 7 7 7 7 7 7 7 7 7
5 5 6 6 6 5 5 5 5 5 5 6 7 6 7 8 8 8 8 8 7 7 6 6 5 5 5 5 6 6 6 6 6 6 6 6 6 6 6 6 6 6 7 7
5 5 6 6 7 6 5 5 6 5 5 5 6 7 8 8 7 7 7 7 7 6 6 5 5 5 4 5 5 5 5 6 6 6 6 6 6 6 6 6 6 6 6 6
5 4 5 6 6 6 5 5 4 4 4 5 6 6 6 6 6 6 6 6 6 6 5 5 4 4 4 4 4 4 5 5 5 5 5 5 5 5 6 6 6 6 6 6
5 3 4 5 4 4 4 4 4 4 4 4 5 6 7 6 6 5 5 6 5 5 4 4 4 4 4 4 4 4 4 4 5 5 5 5 5 5 5 5 5 5 5 5
4 3 2 4 5 5 5 5 4 3 3 4 3 4 7 6 6 5 5 5 5 4 4 4 3 3 3 3 3 3 3 4 4 4 4 4 4 5 5 5 5 5 5 5
3 2 2 3 3 3 3 4 3 3 3 3 3 4 6 6 5 5 5 4 4 4 3 3 3 3 3 3 3 3 3 3 3 4 4 4 4 4 4 4 4 4 4 4
4 1 1 2 3 2 2 3 3 2 1 2 3 4 4 5 4 4 4 4 3 3 3 3 3 2 2 2 2 2 2 3 3 3 3 3 3 3 3 3 4 4 4 4
2 1 1 2 3 2 2 2 2 2 2 2 3 3 4 4 4 4 4 4 3 2 2 2 2 2 2 2 2 2 2 2 2 2 3 3 3 3 3 3 3 3 3 3
1 1 1 1 2 2 2 2 2 2 2 2 3 3 4 5 4 4 3 3 2 2 1 1 1 1 1 1 1 1 1 1 1 2 2 2 2 2 2 2 2 2 2 2
0 -0 0 1 1 1 0 1 1 2 2 2 2 2 3 3 3 3 3 2 2 1 1 1 1 1 1 1 1 1 1 1 1 1 1 1 1 2 2 2 2 2 2 2
-1 -1 -0 -0 -0 -0 2 3 2 2 2 2 2 2 3 3 3 3 2 2 1 1 1 1 1 1 1 1 1 1 1 0 0 0 1 1 1 1 1 1 1 1 1 1
-0 -1 -0 -1 -0 0 2 2 2 1 1 1 1 1 2 3 2 2 2 2 1 1 1 0 0 0 0 0 0 0 0 -0 -0 -0 0 0 1 1 1 1 1 1 1 1
-1 -1 -1 -1 -0 -0 2 2 2 1 -0 1 1 1 1 1 0 1 1 1 1 1 0 0 -0 -0 -0 -0 -0 -0 -0 -0 -0 -0 -0 0 0 0 0 0 0 0 0 0
-2 -2 -1 -1 -1 -0 1 1 1 0 0 2 2 1 1 0 0 1 1 0 0 0 -0 -0 -1 -1 -1 -1 -1 -1 -1 -1 -1 -1 -1 -0 -0 -0 -0 -0 -0 -0 -0 -0
-2 -2 -2 -1 -1 -1 1 1 -0 0 1 1 1 1 1 0 0 0 0 -0 -0 -1 -1 -1 -1 -1 -1 -1 -1 -1 -1 -1 -1 -1 -1 -1 -1 -1 -1 -1 -1 -1 -1 -1
-1 -1 -1 -1 -0 1 1 1 1 1 1 1 0 0 -0 -0 -0 -0 -1 -1 -1 -1 -1 -2 -2 -2 -2 -2 -2 -2 -2 -2 -2 -2 -2 -2 -1 -1 -1 -1 -1 -1 -1 -1
-1 -0 -1 -1 -1 1 1 1 1 1 0 0 -0 -0 -0 -1 -1 -1 -1 -1 -2 -2 -2 -2 -2 -2 -2 -2 -2 -2 -2 -2 -2 -2 -2 -2 -2 -2 -2 -2 -2 -2 -2 -2
-1 -2 -2 -2 -1 -0 1 1 1 0 -0 -0 -0 -1 -1 -1 -1 -1 -2 -2 -2 -2 -3 -3 -3 -3 -3 -2 -3 -3 -2 -3 -3 -3 -3 -3 -2 -2 -2 -2 -2 -2 -2 -2
-2 -2 -2 -2 -1 -1 -0 0 0 -0 -1 -1 -1 -1 -1 -1 -2 -2 -2 -2 -3 -3 -3 -3 -3 -3 -3 -3 -3 -3 -3 -3 -3 -3 -3 -3 -3 -3 -3 -3 -3 -3 -3 -3
Wind_Speed
3 2 3 4 6 8 7 8 9 7 3 4 7 9 8 5 4 4 4 3 4 3 2 2 2 2 2 2 2 2 2 1 1 2 2 2 2 2 2 2 3 3 3 3
2 5 5 5 5 8 8 9 9 6 3 6 7 10 9 6 4 4 4 4 3 2 3 3 2 2 2 2 2 1 1 2 1 1 2 2 2 2 2 2 2 3 3 3
5 2 3 4 5 7 7 7 7 8 7 7 7 9 8 6 5 5 4 4 2 2 2 2 2 2 2 1 1 1 1 1 2 2 2 2 2 2 1 2 2 2 3 3
4 4 4 4 5 6 6 5 7 8 6 5 4 7 6 5 5 6 5 3 3 2 1 2 2 2 2 1 1 1 1 1 1 2 2 3 3 2 2 2 2 2 3 3
3 2 4 5 6 6 5 5 7 8 6 7 6 6 6 3 5 5 4 3 2 1 1 2 1 2 1 1 2 1 1 1 1 1 2 3 3 2 2 3 3 3 3 3
4 2 2 3 4 4 4 5 5 5 4 7 8 7 6 3 5 4 3 2 1 1 2 2 1 1 1 1 2 2 1 1 1 2 2 2 3 4 4 3 4 3 2 2
4 4 2 2 3 2 3 1 1 2 4 6 4 5 6 3 1 1 2 2 1 2 3 2 1 1 0 1 1 1 2 1 1 2 2 3 3 4 4 4 4 3 2 2
3 4 4 2 2 2 3 2 3 4 4 4 3 5 3 1 2 3 2 2 2 2 2 2 1 1 1 1 1 1 1 1 1 2 2 2 2 2 2 3 3 3 2 2
3 2 2 2 3 2 3 4 3 3 5 5 4 3 2 1 2 2 2 3 3 2 2 2 2 1 1 1 0 1 1 1 1 1 2 2 3 2 2 3 3 2 2 2
2 3 3 2 2 3 3 2 1 2 4 6 5 4 3 0 1 1 2 2 2 2 2 2 2 2 1 1 1 1 0 1 1 0 1 2 2 2 2 2 3 3 3 3
2 2 2 2 5 5 3 3 3 3 4 3 5 3 0 2 1 2 2 2 2 2 2 2 2 2 2 2 1 1 0 0 1 1 1 1 2 2 3 3 2 3 3 3
0 1 3 4 2 1 4 4 4 3 5 4 4 4 2 3 3 3 3 3 4 4 3 2 2 2 2 2 1 1 1 0 0 1 1 1 2 2 2 3 3 2 3 3
1 1 1 2 1 0 2 3 4 3 3 4 4 5 2 3 3 3 3 3 3 3 3 3 2 2 1 1 1 1 1 1 1 1 1 2 2 2 2 2 2 3 3 2
0 2 4 6 4 2 4 6 5 4 4 6 8 8 7 5 4 3 2 2 2 2 2 3 3 2 2 2 2 1 1 1 1 1 2 2 2 2 2 2 2 2 3 3
2 4 5 7 7 6 7 8 7 9 9 8 8 9 9 6 4 3 3 2 1 2 2 2 3 2 2 3 3 2 2 2 1 1 2 1 1 2 2 3 2 2 2 2
2 3 3 6 6 6 8 9 9 10 10 11 11 12 8 5 4 4 2 1 1 2 2 2 2 2 2 2 2 2 2 1 1 1 1 1 2 2 2 2 2 2 2 2
3 3 2 4 3 5 7 8 9 7 7 8 11 10 6 5 5 4 2 1 1 2 2 2 2 2 2 2 1 1 1 1 1 0 0 0 1 1 1 1 2 2 2 2
5 3 2 3 2 6 5 2 3 5 7 7 7 7 5 5 4 3 1 1 1 1 2 2 2 2 2 2 2 1 1 1 0 0 0 1 1 1 1 2 2 1 1 2
4 4 3 3 4 7 5 1 1 3 5 4 6 6 5 4 3 2 1 1 1 1 1 2 2 2 2 2 2 1 1 0 0 1 1 1 1 1 1 1 1 1 1 1
2 3 3 3 4 5 3 0 1 1 4 3 4 5 4 4 4 4 2 2 3 2 1 1 2 2 2 2 1 1 1 1 1 1 1 1 1 2 2 2 1 1 1 2
3 4 6 6 6 6 2 1 2 2 5 3 2 3 3 3 4 4 3 3 2 1 1 1 2 2 2 2 1 1 1 2 1 1 1 1 1 2 2 2 2 2 2 2
6 5 5 5 6 7 2 3 3 4 2 3 3 3 3 4 4 3 3 3 2 2 1 1 2 3 3 2 1 2 2 2 1 1 1 2 2 2 2 2 1 2 2 2
6 6 4 6 7 3 3 3 3 1 3 3 3 4 3 4 4 3 3 2 2 2 2 2 2 3 3 3 2 2 2 1 1 1 2 2 2 2 2 2 2 2 2 2
4 3 4 5 7 5 4 3 3 2 3 3 3 3 3 4 4 4 3 2 2 2 2 1 2 3 3 3 2 2 2 1 1 2 2 2 2 2 2 2 2 2 3 3
4 4 4 6 6 5 6 5 4 3 3 3 3 3 3 3 4 3 3 3 3 2 2 2 2 3 3 3 2 2 1 1 1 2 2 2 2 3 2 2 2 3 3 3
5 6 6 8 6 5 5 4 3 4 4 4 3 3 3 3 4 4 3 3 2 2 2 2 3 3 3 2 2 2 2 1 2 2 2 2 2 2 2 2 2 3 4 5
Wind_Direction
204 226 231 237 244 272 292 288 287 289 287 267 260 267 267 248 240 253 252 244 233 222 199 150 123 131 124 114 116 139 155 165 157 151 167 168 168 161 150 130 127 137 142 151
208 247 259 273 277 271 278 279 287 297 287 281 277 272 268 249 237 245 256 268 257 234 192 165 140 113 119 126 125 130 144 183 177 173 165 162 160 162 155 135 140 144 153 157
227 273 278 268 276 274 270 268 279 290 308 279 281 281 255 242 237 245 247 253 257 249 218 166 154 144 126 123 137 156 177 199 186 162 137 127 123 116 126 145 153 136 130 136
255 265 277 271 269 274 270 286 282 285 287 274 244 279 268 234 228 227 231 237 238 240 212 165 161 156 163 158 122 120 138 196 176 160 152 151 159 165 176 160 157 150 138 138
259 284 273 265 273 279 281 310 281 270 262 277 255 253 275 235 239 225 212 225 227 193 145 130 137 165 162 130 137 142 149 185 148 160 158 154 159 162 149 147 152 155 145 145
261 273 276 268 282 290 288 286 278 265 251 259 239 226 276 232 238 223 202 222 219 134 101 97 94 101 95 97 127 150 149 182 174 180 184 179 169 162 152 156 160 158 153 152
255 238 228 262 269 255 284 304 278 251 234 249 224 217 252 260 243 197 189 202 166 132 112 96 95 99 94 144 151 157 147 187 188 184 197 198 174 167 167 169 167 162 158 161
235 243 200 222 241 237 240 225 217 242 257 269 243 231 239 31 64 54 61 84 92 98 97 95 94 131 139 154 158 147 160 186 191 183 194 189 169 167 168 166 162 161 164 167
248 253 159 231 264 235 231 231 254 274 289 281 247 239 227 47 34 33 39 49 55 70 82 93 85 63 75 72 106 145 175 191 197 203 197 180 173 168 164 160 149 143 143 150
277 267 241 227 237 229 242 251 211 221 262 268 263 231 246 330 331 13 41 50 66 68 71 75 73 50 46 64 47 84 155 186 188 192 215 180 156 150 142 144 151 144 137 132
295 235 242 224 215 211 206 225 232 236 248 258 277 264 348 152 90 33 42 52 61 69 68 66 52 43 34 31 29 357 256 191 181 186 210 162 142 141 142 144 150 144 134 133
282 245 248 241 226 259 220 216 200 219 249 241 262 275 349 69 72 46 34 36 39 42 44 59 58 45 30 23 13 356 332 20 116 170 164 156 131 124 135 140 137 132 134 135
124 171 264 264 225 266 274 255 235 240 256 243 246 262 338 22 43 35 31 28 26 30 30 35 45 38 11 354 341 354 350 5 42 83 119 124 130 133 131 132 133 142 136 133
202 206 216 234 265 260 263 261 248 223 229 251 245 265 292 308 326 336 341 8 24 18 17 20 19 13 352 342 342 352 4 15 40 88 104 114 127 141 137 124 123 137 138 145
148 230 247 267 274 266 258 250 238 234 232 237 259 263 270 284 296 306 314 334 357 4 8 5 357 350 353 358 355 358 13 16 35 86 102 108 111 111 127 125 123 120 133 147
183 235 269 273 260 257 263 257 245 241 243 252 268 273 278 303 307 302 297 296 332 355 349 339 336 344 345 346 351 353 358 355 12 79 94 96 106 109 122 130 127 128 138 146
189 193 223 262 297 317 267 242 231 233 233 234 249 262 287 296 294 290 284 275 306 317 316 319 322 319 324 325 325 319 329 344 15 57 72 85 99 106 115 144 140 155 163 150
187 193 212 259 318 247 244 212 208 235 254 248 256 272 282 281 298 309 305 285 301 312 322 322 324 324 326 331 336 336 335 335 355 302 218 215 162 152 156 163 171 185 167 163
195 191 213 220 250 266 265 242 191 230 273 271 266 284 297 306 316 305 13 27 324 309 308 309 306 306 314 321 316 305 281 273 271 259 233 217 198 197 188 185 193 197 185 184
182 195 213 223 238 248 266 148 126 114 276 282 276 286 304 335 297 281 319 340 325 325 337 323 313 312 310 308 306 280 264 254 266 268 266 246 216 215 208 211 220 219 209 205
175 205 218 228 241 259 269 137 91 196 258 314 297 287 291 271 257 278 307 316 317 325 334 329 313 305 299 303 296 269 279 269 267 271 280 277 243 225 212 210 219 217 206 204
188 195 206 208 228 251 197 139 190 237 296 315 319 306 296 288 289 293 305 314 330 335 338 338 324 313 308 299 281 261 266 267 253 238 255 262 253 244 228 205 225 228 206 210
201 201 201 208 225 252 186 213 241 274 286 290 300 304 310 303 301 302 302 306 317 323 324 328 317 309 311 305 283 260 271 269 238 226 244 255 262 251 232 221 225 229 219 217
228 221 225 248 257 263 252 265 269 273 280 290 293 297 303 294 296 301 300 300 303 302 302 307 302 299 304 303 290 268 275 269 235 241 256 256 251 246 241 239 233 227 227 223
225 191 224 251 268 283 267 256 261 273 285 296 303 298 286 282 285 286 288 286 287 292 291 282 277 281 288 296 294 287 275 269 249 248 254 255 247 241 236 231 232 229 232 227
222 211 216 238 240 238 262 271 269 267 274 279 284 292 294 283 275 281 276 273 274 275 275 277 280 282 283 291 295 299 290 265 244 249 253 251 242 247 235 226 254 253 241 246
Height
1489 1492 1492 1490 1489 1487 1485 1485 1484 1480 1479 1481 1480 1478 1476 1474 1474 1474 1474 1475 1475 1475 1477 1478 1478 1479 1480 1481 1481 1482 1483 1484 1485 1487 1487 1488 1490 1492 1494 1496 1498 1500 1502 1504
1490 1491 1489 1487 1487 1486 1486 1486 1484 1480 1480 1480 1479 1477 1472 1471 1471 1472 1472 1472 1472 1473 1474 1474 1475 1476 1477 1478 1478 1479 1480 1481 1482 1484 1485 1486 1488 1489 1491 1494 1495 1497 1499 1501
1489 1489 1487 1487 1487 1487 1486 1487 1486 1484 1482 1479 1480 1476 1470 1467 1468 1469 1469 1469 1470 1470 1470 1471 1472 1473 1474 1475 1476 1476 1477 1479 1480 1481 1482 1483 1485 1486 1489 1490 1492 1494 1496 1498
1488 1487 1487 1487 1487 1486 1487 1484 1484 1484 1487 1486 1482 1485 1467 1464 1464 1464 1465 1466 1467 1468 1468 1468 1469 1470 1471 1472 1473 1474 1475 1476 1477 1479 1479 1480 1482 1484 1485 1487 1489 1491 1493 1495
1487 1487 1487 1488 1487 1487 1486 1484 1483 1483 1485 1487 1482 1484 1472 1462 1463 1461 1462 1463 1464 1465 1466 1466 1466 1468 1469 1470 1471 1471 1473 1474 1475 1476 1477 1479 1480 1482 1484 1485 1487 1488 1490 1492
1487 1486 1487 1487 1486 1486 1485 1485 1483 1482 1485 1490 1479 1480 1473 1464 1460 1459 1460 1461 1462 1463 1463 1464 1465 1466 1466 1467 1468 1469 1470 1472 1473 1474 1475 1477 1478 1480 1481 1482 1483 1485 1487 1489
1487 1486 1486 1486 1487 1487 1487 1491 1493 1491 1490 1483 1469 1473 1470 1459 1456 1457 1458 1459 1460 1461 1461 1462 1463 1463 1464 1465 1466 1467 1468 1469 1470 1472 1473 1474 1476 1477 1479 1480 1481 1482 1484 1485
1489 1488 1484 1485 1486 1489 1488 1490 1496 1495 1487 1478 1470 1471 1465 1458 1456 1457 1458 1458 1459 1459 1460 1461 1462 1462 1463 1463 1464 1465 1466 1467 1468 1469 1471 1472 1473 1475 1476 1478 1479 1480 1482 1483
1488 1486 1482 1483 1483 1486 1487 1488 1486 1491 1487 1485 1473 1463 1459 1458 1458 1458 1458 1459 1459 1460 1460 1460 1461 1461 1461 1461 1462 1463 1464 1464 1465 1466 1468 1469 1471 1472 1474 1475 1477 1478 1480 1481
1485 1490 1484 1483 1483 1484 1485 1485 1490 1493 1491 1484 1470 1465 1466 1463 1460 1459 1459 1458 1459 1460 1460 1460 1460 1461 1461 1460 1461 1462 1462 1463 1463 1464 1466 1467 1468 1470 1471 1472 1474 1475 1477 1478
1485 1491 1488 1484 1484 1484 1485 1487 1487 1487 1486 1486 1479 1470 1459 1459 1459 1459 1459 1459 1459 1460 1460 1460 1460 1460 1460 1460 1460 1460 1460 1460 1461 1462 1463 1464 1466 1467 1469 1470 1471 1472 1474 1475
1485 1489 1490 1484 1479 1479 1480 1482 1486 1492 1489 1484 1483 1476 1457 1456 1458 1459 1460 1460 1460 1460 1460 1459 1459 1459 1459 1459 1458 1458 1458 1458 1458 1460 1461 1462 1463 1464 1466 1467 1468 1469 1471 1472
1486 1491 1493 1486 1486 1484 1483 1481 1483 1486 1486 1485 1483 1475 1459 1458 1459 1460 1460 1460 1460 1459 1459 1459 1458 1458 1458 1457 1457 1456 1456 1456 1457 1457 1458 1459 1460 1462 1463 1464 1466 1467 1468 1469
1484 1488 1491 1488 1483 1484 1484 1482 1481 1485 1488 1483 1475 1469 1463 1460 1460 1460 1460 1460 1459 1459 1458 1457 1457 1457 1457 1456 1455 1455 1454 1454 1455 1455 1456 1457 1458 1459 1460 1462 1463 1464 1465 1466
1484 1488 1485 1482 1479 1479 1479 1479 1479 1481 1479 1480 1470 1466 1461 1460 1460 1460 1459 1459 1458 1457 1457 1456 1456 1455 1455 1454 1453 1453 1453 1453 1453 1453 1454 1455 1456 1457 1458 1459 1460 1461 1463 1464
1484 1486 1485 1482 1476 1477 1476 1474 1474 1473 1472 1470 1466 1463 1458 1458 1458 1458 1457 1457 1456 1455 1455 1455 1454 1454 1453 1452 1452 1451 1451 1451 1451 1451 1451 1452 1453 1454 1455 1456 1457 1458 1460 1461
1483 1486 1486 1482 1476 1477 1477 1470 1468 1467 1465 1465 1465 1460 1457 1457 1456 1456 1455 1455 1454 1454 1453 1452 1452 1452 1451 1451 1450 1450 1450 1449 1450 1450 1450 1451 1451 1452 1453 1454 1455 1456 1457 1458
1481 1484 1485 1483 1484 1484 1467 1459 1459 1461 1460 1460 1457 1455 1455 1455 1454 1454 1453 1453 1452 1451 1451 1450 1450 1449 1449 1449 1448 1448 1448 1448 1448 1448 1448 1449 1449 1450 1451 1452 1453 1453 1454 1455
1477 1481 1482 1483 1482 1471 1461 1458 1458 1461 1460 1457 1456 1454 1454 1453 1451 1451 1452 1451 1450 1450 1449 1448 1448 1447 1447 1447 1446 1446 1446 1446 1446 1446 1446 1447 1447 1448 1448 1449 1450 1451 1452 1452
1477 1479 1482 1480 1479 1474 1460 1457 1455 1459 1461 1454 1453 1452 1452 1451 1453 1451 1450 1449 1448 1447 1446 1446 1445 1445 1444 1444 1444 1444 1443 1443 1443 1444 1444 1444 1445 1445 1446 1446 1447 1448 1449 1449
1479 1479 1479 1478 1476 1466 1458 1455 1456 1464 1459 1452 1451 1450 1450 1450 1450 1449 1447 1446 1445 1444 1444 1443 1443 1442 1442 1441 1441 1441 1441 1441 1441 1442 1442 1442 1442 1442 1443 1443 1444 1445 1446 1446
1471 1473 1474 1473 1473 1467 1455 1454 1457 1455 1451 1450 1449 1449 1448 1447 1446 1445 1444 1443 1442 1441 1441 1440 1440 1439 1439 1439 1438 1438 1438 1438 1439 1439 1439 1439 1439 1440 1440 1440 1441 1442 1442 1443
1463 1463 1462 1463 1460 1453 1451 1450 1450 1450 1449 1448 1447 1447 1446 1444 1443 1442 1442 1440 1440 1439 1438 1438 1437 1436 1436 1436 1436 1435 1435 1436 1435 1435 1435 1435 1436 1436 1436 1437 1437 1438 1439 1439
1456 1455 1456 1456 1451 1449 1448 1447 1447 1447 1447 1446 1445 1444 1443 1442 1441 1439 1439 1438 1437 1436 1436 1435 1434 1434 1433 1433 1433 1432 1432 1432 1432 1432 1432 1432 1432 1432 1432 1433 1433 1434 1435 1435
1451 1452 1453 1453 1448 1446 1444 1444 1444 1444 1443 1443 1442 1441 1440 1439 1438 1437 1436 1435 1434 1433 1433 1432 1432 1431 1430 1429 1429 1429 1429 1429 1428 1428 1428 1428 1428 1428 1428 1429 1429 1430 1431 1432
1445 1448 1449 1446 1443 1443 1441 1441 1441 1440 1439 1439 1438 1437 1436 1436 1435 1434 1432 1431 1431 1430 1430 1429 1428 1428 1427 1426 1426 1426 1425 1425 1425 1424 1424 1424 1424 1424 1424 1425 1425 1426 1427 1428